星链-6315 (STARLINK-6315 )

导读 | 星芒AI

STARLINK-6315 是 SpaceX Starlink 项目中的一颗低轨通信卫星,旨在为全球用户提供高速互联网服务。该卫星属于 Starlink 群体部署的一部分,运行在约 550 公里的近地轨道上,采用先进的推进和通信技术,支持宽带接入和低延迟通信。作为 SpaceX 扩展全球网络覆盖计划的一部分,STARLINK-6315 有助于提升偏远地区的互联网连接能力,并推动 Starlink 系统的商业化和规模化部署。

基本信息
目录编号:
57236
目录名称:
STARLINK-6315
国际标识:
2023-094U
轨道中心:
EARTH
卫星名称:
星链-6315
卫星全名:
星链-6315 (STARLINK-6315 )
卫星状态:
在轨 (已飞行898 天)
发射日期:
2023-07-07 UTC
国别 :
美国 (US)
星等 :
--
轨道信息
数据来源 国际轨道数据
星历时间: 2025-12-21T20:17:14+0800
8小时前
查看轨道信息
半长轴: 6937.205km
偏心率: 0.0000984
轨道倾角: 43.001°
近地点辐角 269.010°
升交点赤经 82.672°
平近点角 91.064°
近地点: 558.385km
远地点: 559.751km
周期: 95.838分钟
每日圈数: 15.0254
详细信息
固有亮度:
5
最大亮度:
2.4
卫星平台:
Starlink v1.5
覆盖范围:
全球
运营商:
太空探索技术公司
运营商所在国:
美国
制造商(研发单位):
太空探索技术公司
制造商所在国:
美国
使用方式:
暂无
卫星简介
星链(Starlink)计划是由太空探索技术公司(SpaceX)提出的一个巨型低轨卫星互联网星座项目,计划在2019年至2024年间在太空搭建由约1.2万颗卫星组成的“星链”网络,其中1584颗将部署在地球上空550千米处的近地轨道,并从2020年开始工作。该卫星仍在工作。
2D轨道图
3D轨道图
轨道高度分析图
轨道倾角分析图
轨道综合分析图
查看轨道综合分析图